Theta_e
300 300 300 300 300 300 301 301 301 301 301 302 302 303 303 303 304 308 309 309 310 310 310 312 313 314 314 315 312 310 309 310 309 309 314 316 314 315 315 316 317 318 318 316 317 317 315 315 315 315 317 316 315 315 314 315 315 315 318 316 314 317 318 320 321 321 322 322 324 322 321 321 323 323 324 329 330 330 338 350 353 353 352 347 346 344 344 346
300 300 300 300 300 301 301 301 301 301 301 301 302 302 303 303 303 306 309 309 310 310 310 312 313 314 315 315 312 308 308 308 312 315 317 316 315 315 316 317 319 319 319 318 317 316 315 317 316 315 316 315 315 315 315 317 316 316 321 319 317 322 323 322 321 320 322 320 321 322 320 321 322 322 322 329 333 334 346 353 354 363 356 346 347 345 346 347
300 300 300 300 300 301 301 301 301 301 301 301 302 302 302 303 303 305 308 310 310 310 311 312 313 315 316 315 311 307 309 313 322 327 323 317 317 316 318 319 320 320 319 318 317 315 315 316 316 315 316 315 315 315 316 317 317 317 320 321 323 324 322 321 320 320 321 319 321 321 321 322 321 322 319 326 332 335 349 356 355 364 360 350 348 345 345 345
299 300 300 300 300 301 301 301 301 301 301 302 302 302 302 302 302 304 307 309 310 311 311 312 313 315 317 315 309 307 314 321 329 328 322 319 318 318 319 321 321 320 319 318 317 314 314 314 314 315 316 316 316 315 315 316 317 318 319 322 325 321 320 319 319 321 321 319 320 321 321 322 321 321 319 322 327 330 340 348 353 359 356 350 347 345 344 344
299 299 300 300 300 301 301 301 301 301 302 302 302 302 302 303 303 303 307 309 310 311 311 312 314 315 317 314 308 309 317 324 325 322 323 321 318 319 320 321 322 320 318 317 316 314 314 315 314 316 316 317 317 317 318 317 317 319 319 321 322 319 318 319 319 320 321 319 321 321 320 321 320 320 320 320 322 328 334 337 344 351 350 348 347 345 344 344
299 300 300 300 300 301 301 301 302 302 302 302 302 302 303 303 303 303 306 309 310 311 311 312 314 316 317 313 308 312 317 320 320 320 323 321 319 321 320 322 321 319 317 316 315 315 316 316 316 317 317 318 319 319 320 319 317 317 319 320 319 318 318 319 319 320 321 320 320 321 320 320 319 319 321 320 321 326 330 334 343 347 347 346 345 345 345 346
299 300 300 300 301 301 302 302 302 302 302 302 303 303 303 303 303 303 306 309 310 311 312 312 314 316 315 313 313 318 320 319 318 319 321 320 319 321 321 322 320 317 316 315 316 317 317 317 318 318 317 318 319 319 319 318 317 316 319 320 320 319 319 319 319 320 320 320 320 320 319 319 319 320 322 322 322 325 328 336 345 346 345 345 345 346 345 345
300 300 300 301 301 301 302 302 303 303 303 303 303 303 303 303 303 303 306 309 311 312 312 312 314 315 315 315 317 320 321 322 320 319 321 318 318 321 322 321 318 316 315 315 317 318 318 320 320 318 318 319 319 319 318 318 318 317 318 318 319 319 320 320 319 320 320 320 321 320 319 319 319 319 321 321 321 327 332 338 345 346 345 346 346 346 345 344
300 300 300 301 301 301 302 302 303 304 304 304 304 304 304 304 303 304 306 310 312 313 314 312 313 315 314 314 316 317 318 321 319 320 321 317 318 321 321 319 315 315 314 315 316 317 319 321 321 319 318 318 318 318 318 318 318 317 317 317 317 317 318 319 319 319 319 320 320 319 319 319 319 317 319 325 323 327 335 340 345 347 347 348 346 346 345 344
299 300 300 301 301 301 302 303 303 304 305 306 305 305 305 304 304 304 307 311 312 313 314 313 314 315 313 314 317 319 319 319 319 322 321 317 317 319 318 315 314 314 314 315 316 317 319 321 321 319 318 317 317 318 317 317 317 317 317 317 317 317 317 317 318 318 319 320 319 319 319 319 319 316 323 335 328 327 337 343 346 347 348 348 346 346 345 345
299 300 300 301 301 301 302 302 303 304 304 306 306 307 306 305 306 306 309 312 313 315 315 313 314 314 315 318 321 320 319 318 320 323 320 316 316 316 314 313 314 314 313 315 315 316 318 318 319 318 317 318 317 318 318 317 317 318 317 317 317 317 316 316 317 318 318 319 319 319 318 319 318 316 323 330 326 328 339 344 345 347 348 348 346 346 345 345
299 299 300 300 301 301 302 302 303 304 304 306 306 307 307 308 309 311 312 313 314 315 314 314 314 314 317 322 322 321 318 319 321 321 318 315 315 315 314 314 313 313 314 315 315 315 317 317 317 317 317 318 318 318 318 317 317 318 317 317 317 316 316 317 317 317 317 318 319 319 317 318 318 318 322 322 324 331 339 344 345 345 346 347 347 346 345 343
299 299 300 301 301 302 302 303 303 304 305 306 306 307 309 311 313 314 315 315 316 316 313 315 314 313 318 322 322 320 319 320 319 318 316 314 315 315 314 314 314 314 313 314 315 315 316 317 317 317 318 318 319 318 318 317 317 318 317 316 316 316 316 317 317 317 317 317 319 318 314 316 320 320 322 320 322 332 339 343 344 344 346 347 347 345 342 340
299 299 300 301 301 301 302 303 303 304 305 306 307 310 312 314 316 317 316 316 317 315 314 315 313 315 321 322 319 319 320 320 319 317 315 314 314 314 314 313 314 315 315 314 315 315 317 317 316 316 318 318 318 318 318 318 317 317 316 316 315 313 314 317 317 317 318 317 318 319 312 315 321 322 323 319 320 330 337 342 344 344 347 347 345 342 339 337
299 299 299 300 301 301 302 302 303 303 305 307 309 313 315 316 318 319 318 317 317 316 315 314 312 319 326 323 320 321 323 323 321 319 317 315 315 316 315 314 315 316 317 316 316 317 317 317 316 316 318 319 318 318 318 317 317 317 314 314 315 312 313 316 317 318 318 317 318 317 313 315 319 322 324 321 320 325 331 339 345 345 346 344 342 339 336 336
298 299 299 300 300 301 302 302 303 303 305 308 311 315 315 316 319 320 320 318 317 315 315 317 315 319 326 324 322 323 324 325 324 322 320 317 317 318 318 317 316 316 316 317 318 318 318 317 317 318 318 318 318 317 317 316 316 318 314 311 313 312 312 315 317 319 319 318 317 316 317 320 322 323 322 321 320 321 323 332 341 344 343 342 340 337 336 335
299 299 299 300 300 301 301 302 302 304 307 310 313 315 314 316 319 320 321 318 318 316 316 319 317 317 323 323 324 326 326 325 324 323 321 319 319 319 318 317 316 316 316 316 317 317 317 317 317 318 318 318 318 317 315 314 315 318 317 313 313 312 312 313 315 320 320 319 318 317 319 322 324 324 322 319 321 321 320 324 335 341 340 340 338 337 336 336
299 299 299 300 300 300 301 302 302 305 308 311 315 315 314 318 321 321 320 317 319 321 321 321 320 320 324 324 325 328 326 325 325 324 321 320 320 320 319 317 316 316 316 316 317 317 316 317 316 317 318 317 317 317 314 313 315 317 317 314 313 313 313 313 314 318 320 319 319 318 318 319 321 322 321 319 319 321 323 321 327 335 337 337 337 337 337 336
299 299 300 300 300 301 301 301 304 308 310 312 314 314 313 316 321 322 318 314 316 322 328 328 325 326 325 324 325 325 324 324 323 323 322 320 319 320 320 319 318 317 316 317 317 316 315 316 315 315 315 315 316 317 315 315 315 315 315 313 313 311 312 314 315 318 319 318 319 318 318 319 319 320 320 321 320 320 324 322 323 330 334 336 338 339 338 337
299 299 299 300 300 301 301 302 306 310 311 313 313 313 313 314 320 322 315 313 314 315 319 321 323 326 325 323 323 323 322 322 322 323 323 321 320 320 321 321 320 318 317 318 318 316 315 316 315 315 314 315 315 315 316 315 315 315 314 313 312 311 312 315 317 319 319 318 318 319 318 318 318 319 319 321 322 320 321 323 323 328 334 336 339 340 339 340
299 299 300 300 300 301 301 303 308 311 313 314 312 311 312 312 315 316 313 313 313 312 313 314 316 319 321 319 319 319 318 319 320 321 322 322 321 321 321 321 321 321 320 318 317 317 315 315 315 315 314 315 315 315 315 315 315 315 314 313 312 312 313 316 318 319 319 317 317 319 317 317 318 320 321 320 321 321 323 324 324 329 333 336 339 340 340 339
298 299 299 299 301 302 301 305 310 311 313 314 312 311 311 311 312 313 314 315 313 312 313 313 313 314 315 316 316 316 317 318 318 319 321 321 321 322 322 321 321 322 321 318 318 318 317 316 315 315 315 315 315 315 315 315 316 315 314 313 312 313 315 317 320 320 319 317 318 320 317 318 320 321 321 321 320 321 324 323 323 329 333 336 338 339 339 338
299 299 299 299 301 301 302 307 311 312 315 314 313 313 311 311 313 312 314 316 315 314 314 314 314 314 314 315 316 316 317 318 318 319 321 320 320 321 321 321 321 321 320 319 319 318 317 318 317 316 315 315 315 315 315 316 316 316 315 313 312 315 315 315 319 320 320 317 318 320 318 319 323 323 322 321 321 320 321 321 322 326 331 335 337 337 336 336
299 299 299 299 300 302 303 308 311 313 315 314 314 314 314 314 313 311 315 320 319 318 316 315 315 315 316 319 318 318 317 318 319 320 320 321 320 320 320 321 321 320 320 320 320 318 318 319 319 318 317 317 316 316 317 315 315 317 317 315 314 316 316 316 319 321 322 323 322 320 319 324 329 326 325 322 320 320 322 325 325 325 327 332 335 335 334 334
299 299 299 299 301 301 303 308 310 312 315 315 314 315 315 315 312 311 318 326 328 327 322 318 318 318 319 320 319 319 319 319 320 320 320 321 320 320 321 320 320 320 320 319 319 319 318 318 318 318 318 318 317 317 317 316 315 315 318 319 317 318 320 320 319 319 319 320 324 319 316 326 336 327 322 321 323 326 327 329 331 329 328 329 332 332 332 333
299 300 299 300 301 301 305 310 308 310 316 314 314 315 314 313 312 312 323 335 340 338 329 321 320 322 321 321 320 320 322 324 322 320 321 321 319 321 321 320 321 321 322 321 320 320 320 320 320 319 320 320 320 320 319 320 316 315 322 324 320 320 321 321 319 318 316 318 324 320 315 321 329 324 321 324 329 332 331 332 332 331 332 332 331 329 331 333
299 300 299 300 302 302 307 309 306 310 316 313 314 315 313 314 313 314 327 338 338 331 327 324 321 321 322 321 322 325 326 328 325 322 321 321 321 320 321 323 323 321 322 321 320 323 325 323 322 322 322 321 322 322 322 323 318 318 326 324 322 322 320 322 319 316 319 320 323 325 316 314 319 322 324 328 334 336 334 335 333 331 333 337 336 330 330 334
300 300 300 301 303 304 306 306 306 310 314 312 314 313 313 315 314 319 329 330 328 324 324 324 321 320 321 321 322 327 329 325 325 325 322 321 321 321 322 323 324 324 324 321 320 325 326 323 323 324 323 322 323 323 323 322 320 324 326 322 323 322 321 323 319 318 322 318 321 329 319 314 322 330 331 336 338 335 335 335 333 332 333 336 338 334 333 336
300 300 301 302 305 307 309 308 307 310 314 314 314 313 315 315 317 332 337 326 322 324 323 323 322 321 322 322 321 324 324 322 325 325 321 320 321 322 322 322 323 323 323 321 322 325 324 322 323 322 323 322 322 324 323 321 323 326 324 323 323 321 323 323 319 319 318 317 322 327 316 315 327 334 332 337 336 332 335 334 332 332 332 334 338 338 338 339
300 300 301 303 307 310 312 311 311 314 316 317 315 313 316 320 330 341 337 325 323 324 324 323 322 321 321 322 324 325 323 322 324 324 321 321 321 321 322 322 322 323 324 323 323 323 321 321 323 322 322 323 322 324 322 321 322 322 323 324 324 326 330 333 334 324 315 323 331 326 319 318 326 333 333 334 335 334 336 334 333 334 332 334 336 337 340 342
300 300 302 305 308 312 313 313 315 316 317 316 314 316 323 332 342 341 329 324 328 328 327 323 319 320 320 320 325 325 321 321 323 322 323 324 322 322 323 323 323 325 328 325 322 323 321 320 323 322 322 322 322 322 322 323 322 321 327 326 322 327 330 337 344 329 318 329 333 325 324 321 323 334 337 334 339 340 336 334 335 335 334 334 333 335 338 342
301 301 304 306 310 314 314 315 316 316 316 315 315 325 337 337 337 337 330 325 328 327 323 320 318 320 320 320 322 320 319 322 323 323 324 324 324 324 323 326 327 323 325 327 325 325 325 324 323 321 322 322 321 323 326 330 327 323 327 325 321 325 326 329 335 328 324 330 329 325 325 322 329 341 339 336 340 339 335 333 333 334 334 335 333 332 334 337
300 302 305 308 314 316 315 315 315 316 317 315 319 335 347 338 331 335 335 327 324 323 319 318 319 319 320 322 321 319 320 322 321 321 323 322 324 325 323 325 325 320 323 328 325 323 328 332 327 322 324 323 323 324 324 328 330 324 323 321 320 322 323 327 332 328 326 328 329 329 323 323 333 339 337 339 338 336 334 332 332 333 333 334 332 330 330 332
301 305 307 311 317 316 314 314 315 318 315 316 328 340 335 331 332 335 334 328 323 320 318 318 319 318 319 320 318 318 321 322 320 318 321 323 324 327 328 326 323 321 325 327 325 324 323 328 332 325 323 323 322 324 324 327 328 326 325 323 322 321 320 326 332 328 324 327 328 325 324 329 332 332 336 339 336 335 333 331 332 332 332 332 332 331 331 333
302 307 312 315 316 313 313 314 314 315 313 321 340 342 328 328 334 332 328 324 320 319 319 317 319 323 324 322 320 318 318 320 321 319 321 323 321 324 328 328 326 325 327 325 328 327 320 325 335 325 321 322 318 321 323 323 328 333 330 322 321 326 324 324 332 330 324 325 327 323 327 335 331 331 338 337 336 336 333 333 333 332 333 332 333 335 334 335
302 309 315 315 313 312 312 312 313 312 315 329 340 337 334 334 332 327 322 319 318 320 322 319 319 327 327 326 324 318 316 320 321 321 322 322 321 323 324 325 326 327 330 330 331 329 322 330 337 323 322 323 316 320 321 317 328 335 327 321 326 332 327 322 328 332 323 322 330 328 323 327 330 334 338 336 336 336 332 334 335 334 335 334 335 337 336 335
305 310 315 315 313 313 311 311 312 312 323 337 334 330 334 331 324 321 318 317 317 321 327 321 319 322 320 323 325 317 317 323 321 320 322 322 323 324 321 322 323 323 327 328 329 327 322 327 333 324 323 323 316 319 322 318 324 326 321 324 330 329 326 323 325 328 324 325 333 330 320 322 330 336 339 336 335 336 334 334 335 335 334 334 336 336 336 337
308 312 317 316 313 311 312 312 310 313 331 342 334 331 331 323 319 318 316 316 317 321 326 320 319 321 316 318 323 319 319 323 321 320 323 323 323 323 319 320 321 320 322 323 326 328 323 323 331 327 319 321 320 318 323 325 321 318 321 326 328 326 327 329 329 330 329 327 331 332 326 323 328 333 336 336 336 337 335 334 333 333 333 333 335 335 336 339
310 318 323 316 311 313 312 310 310 322 336 335 330 331 326 319 319 317 316 317 317 321 322 317 318 322 319 318 320 320 321 322 320 320 323 322 321 322 319 318 320 319 319 322 322 325 325 322 328 331 320 318 325 323 324 329 323 316 320 323 327 328 327 328 329 330 331 328 328 331 327 326 333 337 335 335 337 336 334 334 332 331 331 332 333 334 336 339
310 322 328 315 310 313 310 309 316 329 335 329 328 328 320 317 318 316 317 317 317 319 318 317 318 319 321 321 320 321 322 321 319 320 324 324 320 322 321 318 319 318 319 324 322 323 329 324 324 332 326 319 326 327 322 322 320 317 320 322 323 325 324 323 322 322 323 326 330 329 326 333 342 339 334 333 334 333 331 332 332 331 332 332 333 336 336 337
309 323 326 315 311 312 312 315 320 325 326 325 327 323 317 318 317 316 317 316 317 317 315 317 318 317 319 320 320 322 322 322 320 318 322 324 322 323 320 318 319 318 319 326 325 325 331 328 325 328 324 320 326 327 320 318 318 318 320 321 321 320 320 319 323 327 322 322 331 329 325 334 336 332 336 335 330 331 329 329 331 331 331 334 336 338 338 338
311 320 321 314 312 312 315 321 321 319 321 322 323 319 317 317 315 315 315 314 317 317 315 318 317 318 319 318 320 322 320 322 322 320 321 322 321 320 318 318 319 318 319 323 324 325 328 327 325 324 321 319 322 321 318 319 319 318 319 320 320 321 322 321 327 334 327 322 330 328 324 331 329 328 335 334 330 332 331 329 331 330 330 333 334 335 336 334
312 315 315 313 313 313 318 325 325 322 319 318 318 315 315 316 315 315 314 314 317 317 318 319 317 318 320 319 320 321 320 323 323 322 322 321 319 317 317 317 317 317 320 324 325 326 328 327 323 325 324 320 322 324 320 320 319 319 322 321 319 321 321 321 324 326 326 326 328 327 330 336 333 328 330 330 329 333 333 331 331 330 333 336 335 335 335 332
307 308 314 313 312 314 318 320 320 321 318 315 314 313 315 316 315 314 313 314 317 317 318 319 317 318 320 319 319 318 319 322 322 322 323 322 321 319 317 315 315 317 320 325 326 319 323 329 325 325 326 322 326 331 327 326 326 324 322 319 318 318 318 323 327 325 329 331 327 327 334 339 336 333 335 335 333 336 338 335 333 332 336 339 338 333 330 331
308 312 315 313 310 315 318 315 313 316 315 313 314 315 316 316 314 313 312 313 316 316 316 318 317 316 318 319 318 318 318 319 321 323 321 319 319 317 315 314 315 317 320 329 332 319 322 333 327 323 326 322 322 326 326 329 328 324 321 318 317 318 318 325 328 325 330 334 328 327 330 333 333 332 335 337 335 336 337 336 335 333 333 337 340 333 329 331
314 319 319 315 313 315 316 313 310 312 313 313 315 316 316 315 314 311 310 312 315 315 314 316 315 314 318 319 318 319 319 318 319 321 320 318 317 314 314 314 314 317 320 326 328 321 324 332 327 324 325 321 319 322 325 327 324 321 322 320 318 318 320 324 324 323 330 332 326 324 324 325 328 328 328 329 329 330 334 334 332 331 332 337 336 331 331 331
312 316 315 313 314 315 314 311 308 309 311 312 314 315 315 315 314 312 312 313 314 314 315 316 313 312 317 319 319 320 320 319 321 320 318 318 315 312 313 313 313 317 318 317 319 320 322 325 326 325 323 321 320 321 323 323 321 320 320 319 318 318 319 321 320 323 329 326 322 326 326 321 322 323 324 326 325 325 328 329 326 325 331 333 327 326 330 329
311 314 311 307 312 315 312 309 308 308 309 311 314 316 314 314 314 314 315 315 314 314 317 316 312 311 315 317 317 320 320 322 322 320 317 315 313 312 313 313 313 315 315 312 314 319 319 322 327 325 321 322 322 321 322 321 319 319 319 319 319 318 318 320 320 322 325 322 322 327 326 320 319 319 323 330 328 323 322 325 322 320 324 326 323 323 327 326
308 310 309 306 309 311 308 307 309 310 311 311 316 318 313 313 315 312 312 315 316 314 314 314 312 312 314 315 316 319 320 320 320 318 316 313 312 313 313 314 314 313 311 311 314 317 319 325 328 322 319 321 321 321 321 320 319 318 317 318 318 318 320 322 321 320 323 324 323 323 322 321 319 316 319 327 329 324 322 325 325 319 317 321 324 323 323 323
305 307 307 307 309 309 309 310 310 310 312 311 313 315 311 311 312 310 309 312 314 313 312 313 313 312 314 314 316 319 316 314 316 317 314 312 312 313 313 314 314 312 310 311 314 316 318 324 324 318 317 320 319 320 319 318 318 317 316 316 316 317 319 320 320 320 321 322 322 322 322 319 318 320 322 324 326 325 323 323 323 320 317 320 323 320 320 323
302 302 303 306 310 311 309 309 308 309 312 311 311 311 310 309 307 307 310 311 312 312 310 310 312 313 315 314 314 317 316 312 314 316 312 310 312 312 312 312 311 310 310 311 313 315 316 320 321 318 318 318 317 318 318 316 316 315 315 316 315 316 317 316 318 320 319 318 319 321 319 315 317 324 325 322 323 326 324 321 321 321 319 319 320 319 320 322
301 301 301 304 309 310 308 308 308 309 310 309 308 307 308 308 306 307 311 312 310 309 308 309 310 311 312 313 311 313 316 314 313 314 311 310 310 310 309 310 310 310 311 310 312 314 315 318 319 318 317 316 316 319 319 316 316 316 315 316 317 317 317 316 318 320 318 317 319 319 317 315 316 318 318 318 319 320 320 319 319 320 319 320 321 322 321 321
Wind_Speed
20 20 21 21 21 21 21 21 22 22 21 21 22 22 22 22 22 21 20 20 20 20 19 19 19 18 17 14 11 11 12 13 14 12 10 12 13 11 12 11 10 10 12 14 12 9 7 7 11 12 9 5 3 4 5 6 4 3 3 3 5 4 4 5 4 4 3 2 5 4 2 4 1 6 3 5 3 3 6 5 3 4 7 4 4 14 26 27
21 21 21 22 22 22 22 22 23 23 22 22 22 22 22 22 22 21 20 20 20 20 19 19 18 17 16 13 10 10 11 13 12 13 14 10 7 10 13 11 10 11 12 14 14 10 5 4 7 5 3 2 3 4 3 2 2 4 4 3 5 5 5 6 5 6 3 1 4 4 2 2 2 4 1 2 3 5 7 3 3 5 6 6 9 20 26 28
23 23 22 23 23 23 23 23 23 24 24 24 23 23 23 22 22 21 20 20 19 19 19 18 17 16 14 12 8 9 11 9 6 9 7 6 13 14 14 12 9 10 13 13 11 11 9 8 7 3 1 3 4 4 3 3 2 3 4 2 6 6 6 7 7 8 6 3 2 4 3 4 6 2 1 3 6 6 7 4 2 2 2 5 8 16 22 24
24 24 24 24 24 24 24 25 25 25 25 25 24 24 23 23 22 21 20 19 19 18 18 17 17 14 13 10 6 7 9 5 3 6 2 6 13 14 15 14 10 10 13 13 10 11 11 10 6 2 1 4 5 4 4 4 3 2 4 5 7 5 5 8 8 7 4 1 1 4 4 6 7 2 2 4 6 4 6 9 10 10 9 9 8 12 17 19
24 25 25 25 25 25 26 26 26 26 26 26 26 25 24 23 22 21 20 19 18 18 18 16 15 13 11 7 4 5 6 3 2 5 1 6 10 12 14 14 12 12 12 13 11 9 9 7 3 1 2 4 5 3 5 7 4 3 4 7 8 4 5 9 6 5 5 1 0 5 5 4 6 3 3 4 5 6 8 11 11 13 14 14 13 12 13 14
25 26 26 26 26 26 27 27 27 27 27 27 26 26 25 24 23 21 20 19 18 18 17 15 13 12 9 4 2 3 2 1 5 5 3 6 8 11 12 13 14 13 13 13 10 5 5 2 0 2 3 4 5 5 7 7 7 6 6 6 9 6 7 8 4 4 5 3 3 3 4 4 3 5 4 5 6 7 10 11 11 14 16 17 15 13 13 13
26 27 27 27 27 27 28 28 28 28 28 28 27 27 26 25 24 22 20 19 18 18 17 14 12 10 6 1 0 1 2 5 11 7 7 7 8 11 12 13 16 15 14 12 8 3 2 2 2 3 3 5 5 6 7 5 5 7 5 6 8 8 8 7 5 6 6 5 6 4 2 4 5 6 5 6 8 6 9 12 14 14 13 14 14 14 14 15
27 27 27 28 28 28 28 28 29 29 29 29 28 28 27 26 24 22 20 19 18 18 17 13 10 8 4 1 0 3 0 10 14 8 8 10 11 13 14 15 17 17 15 14 10 4 0 3 5 4 3 6 3 3 6 7 2 1 4 6 6 8 8 9 7 7 7 6 7 5 5 8 10 5 3 9 9 6 11 12 13 12 12 12 14 15 15 14
27 28 28 29 29 29 29 29 29 29 29 29 29 29 27 26 24 23 20 19 19 19 17 13 9 6 1 2 2 3 5 9 12 9 10 13 13 16 17 18 19 18 15 15 12 5 2 3 7 4 1 6 3 4 4 5 3 3 5 6 7 9 9 9 8 7 7 5 4 6 9 12 10 3 3 11 9 8 11 12 13 13 14 13 14 15 15 15
29 29 29 29 30 30 30 30 30 30 30 29 30 29 27 26 25 23 20 19 19 19 16 10 7 4 1 3 4 1 8 7 10 8 12 16 15 18 20 19 19 20 14 12 12 8 6 8 7 2 3 6 4 6 3 3 3 6 7 9 10 11 9 7 8 9 8 6 5 6 10 12 7 2 4 11 6 11 12 13 14 14 15 14 13 13 13 14
30 30 30 30 31 31 31 31 31 31 31 30 30 28 27 26 25 24 21 20 19 18 14 7 5 3 3 2 4 4 7 7 9 8 15 18 19 20 22 21 19 21 16 9 12 15 16 13 5 4 4 4 5 8 4 2 5 7 7 11 13 12 11 9 9 10 6 6 8 7 8 12 7 3 8 10 7 15 14 14 15 15 14 14 14 12 10 11
30 30 30 30 31 32 32 32 32 32 32 31 29 27 26 25 25 25 23 21 18 14 10 5 4 3 2 1 6 11 7 4 7 13 18 19 19 17 18 22 21 22 20 10 11 22 22 12 5 5 6 3 5 6 4 4 6 7 6 9 13 11 12 14 11 10 6 7 10 3 4 11 8 9 13 10 9 16 15 14 15 14 13 12 12 10 9 9
31 31 31 31 31 32 32 32 32 32 32 31 29 27 26 25 26 25 23 18 12 9 6 3 3 4 2 1 9 14 10 6 8 14 19 18 18 16 17 20 19 19 20 15 15 22 20 13 8 7 5 2 4 4 4 6 5 8 7 5 9 8 10 14 8 9 10 12 10 5 2 10 10 13 15 6 10 15 14 15 15 12 10 9 10 9 9 9
32 32 32 32 32 32 32 32 33 33 32 30 28 27 26 26 24 21 17 12 6 4 4 1 2 5 3 5 12 14 12 11 12 16 19 19 17 14 17 18 16 17 18 18 20 20 19 17 10 5 4 3 3 4 5 6 4 6 7 4 4 3 8 15 9 6 10 12 10 9 5 10 10 14 14 5 12 17 15 15 13 10 9 8 9 9 9 9
33 33 33 33 32 33 33 33 33 33 31 29 27 27 26 23 18 13 10 6 1 2 2 2 4 5 1 8 14 12 9 8 17 22 21 21 17 10 14 17 17 19 18 19 21 21 21 16 8 4 5 3 2 4 5 5 3 2 3 5 3 2 7 17 13 5 8 6 9 11 5 8 9 13 13 5 11 16 16 14 12 11 12 10 9 9 9 9
34 34 34 33 33 33 33 33 33 32 30 27 27 26 22 18 12 8 6 4 2 2 2 3 4 4 0 6 8 8 6 6 13 21 23 24 21 14 16 17 15 18 20 20 22 22 19 12 5 3 3 4 2 3 4 4 5 2 2 4 5 5 6 11 11 6 4 3 6 9 5 4 6 11 12 6 9 14 14 14 14 14 13 12 10 9 9 8
35 35 35 35 35 34 34 33 33 31 28 25 27 24 17 12 7 6 7 8 5 1 2 1 1 3 3 7 6 7 6 6 6 15 25 27 24 20 17 11 8 15 16 17 17 13 10 6 3 2 2 3 1 2 4 4 5 3 2 4 6 6 5 6 8 8 5 5 2 9 6 6 8 9 11 6 8 13 12 12 15 15 13 12 10 10 9 9
35 35 35 36 36 35 34 33 32 29 25 25 26 21 13 9 5 10 11 10 6 2 0 1 1 2 4 5 4 5 4 8 8 12 24 27 27 24 17 10 7 8 6 7 8 5 2 2 2 3 3 2 0 3 1 6 5 4 4 3 6 6 6 8 8 7 5 5 3 6 7 11 13 11 10 8 7 11 11 10 13 14 13 12 10 10 10 10
35 35 36 36 36 36 34 33 30 25 24 25 22 14 9 10 5 7 7 11 5 0 1 2 3 2 3 5 6 8 13 16 11 12 21 25 27 24 16 9 6 5 3 1 4 4 2 1 2 3 4 4 4 5 7 11 8 8 9 6 7 8 8 10 10 9 5 4 5 5 7 10 12 12 10 10 6 9 11 9 9 10 11 11 11 11 11 12
35 36 36 36 37 35 34 33 26 21 23 25 23 13 8 10 4 0 8 10 3 6 6 6 7 5 8 8 8 9 16 17 7 9 16 20 21 16 8 4 3 3 4 4 3 3 3 3 3 6 8 8 8 9 11 13 11 11 10 8 10 9 10 12 10 11 5 2 6 7 6 7 9 10 10 9 7 6 9 8 8 10 11 11 13 13 13 14
36 36 35 36 36 34 34 31 21 19 21 22 23 11 4 7 4 3 9 9 8 10 12 12 12 12 13 12 12 9 10 11 8 6 12 16 15 9 3 2 3 3 4 5 3 2 3 5 7 10 12 10 11 11 10 11 12 11 9 8 10 8 11 13 10 11 6 3 6 8 6 9 9 8 8 7 7 8 10 8 9 13 14 13 15 15 14 13
36 36 35 36 35 33 33 26 17 17 18 22 23 11 5 11 7 6 8 7 11 10 13 14 14 15 15 18 21 12 4 6 11 11 8 12 10 6 4 4 5 5 3 3 2 2 2 6 10 12 12 10 11 11 10 12 12 10 8 7 8 7 9 10 9 11 5 3 6 10 8 9 9 8 8 8 7 8 9 8 9 14 15 13 13 14 13 12
37 36 35 35 34 33 30 21 14 16 16 17 19 13 13 18 16 16 9 5 11 8 8 9 9 10 11 14 18 12 5 6 8 10 8 12 7 6 5 5 7 5 3 4 5 5 4 8 10 11 10 9 12 13 11 11 9 8 8 6 8 10 7 6 7 9 5 0 6 8 6 6 6 7 8 8 7 6 9 9 6 12 15 15 16 15 14 14
37 36 35 35 34 32 27 15 13 18 14 9 12 17 20 20 21 22 9 3 6 7 6 8 7 5 7 7 7 12 6 5 7 8 10 12 5 4 6 6 6 4 5 6 7 7 8 12 10 8 9 10 12 14 12 8 7 9 10 8 10 11 9 7 7 6 6 4 4 3 5 5 5 5 6 8 6 5 9 10 6 3 11 14 16 16 15 15
37 36 35 34 32 32 23 9 13 22 13 5 11 20 23 21 23 20 7 1 4 6 5 5 4 5 6 3 6 11 4 3 6 7 11 14 8 4 3 4 4 5 8 8 7 6 10 13 11 9 11 10 10 12 12 8 7 9 10 13 15 12 10 9 7 4 5 6 4 2 4 5 5 5 6 6 8 9 10 11 11 6 2 8 11 11 11 13
36 34 34 33 31 31 19 4 14 23 9 4 14 23 24 24 23 13 3 3 3 5 3 0 2 3 4 2 5 4 3 2 8 9 12 15 13 8 2 2 2 5 7 5 4 3 6 10 9 10 11 10 9 8 9 8 5 6 8 11 13 9 6 7 7 3 1 5 5 0 1 4 6 6 6 5 9 9 10 10 10 8 4 3 8 9 9 10
35 33 33 31 29 26 12 3 16 16 3 8 19 24 26 26 19 7 2 5 3 3 2 1 1 1 3 4 4 5 2 4 5 4 10 15 12 6 5 5 2 4 4 1 2 3 4 6 6 7 7 7 7 6 7 6 4 6 6 5 5 5 6 6 6 4 3 4 5 4 1 2 4 4 5 4 8 9 10 11 11 10 8 5 3 10 13 13
35 33 31 29 25 18 9 9 15 9 4 15 21 24 27 24 12 2 5 4 2 2 1 2 1 2 3 1 2 3 4 3 2 4 7 17 12 3 5 7 4 6 4 3 4 6 4 6 8 8 7 6 5 6 7 4 3 6 6 4 2 3 5 4 3 4 3 2 5 6 2 1 4 5 5 5 7 7 8 8 10 10 10 8 3 6 11 13
34 32 29 27 21 14 12 13 10 7 12 18 21 25 26 16 5 3 5 2 3 2 1 1 2 4 4 4 2 2 3 1 2 4 2 11 8 3 5 8 6 7 6 6 6 6 5 7 9 7 6 6 7 8 7 4 5 7 5 3 1 1 3 1 1 3 2 2 4 6 2 0 4 5 4 5 4 3 3 5 7 8 8 8 6 6 6 7
33 31 27 23 17 12 15 14 10 12 16 19 23 26 19 6 3 5 3 1 3 4 2 2 4 6 7 6 5 5 3 2 1 2 3 2 1 2 3 3 2 4 4 3 4 7 7 6 5 5 6 6 7 9 8 7 10 8 4 3 4 5 3 2 1 2 2 3 5 6 0 4 1 4 3 1 2 3 2 2 3 6 9 9 7 7 7 6
33 29 24 19 15 12 12 11 13 16 17 21 26 20 8 2 4 5 1 3 3 4 4 4 5 7 9 6 4 5 4 4 2 0 1 1 0 1 1 2 1 1 3 4 5 7 6 5 4 5 6 5 5 7 7 7 6 3 0 2 3 5 4 4 4 4 1 5 5 4 1 4 2 4 4 4 3 4 3 3 6 6 7 8 8 8 8 6
32 28 21 13 12 12 9 9 15 18 18 23 22 10 4 4 3 2 2 4 2 3 3 3 5 6 8 7 4 5 5 4 2 2 3 2 2 3 3 4 3 0 3 4 4 5 5 5 6 5 5 4 3 4 6 6 3 2 1 3 3 4 4 3 4 2 3 6 5 3 0 1 3 5 5 6 5 6 4 3 5 7 8 7 7 7 7 7
32 28 18 8 8 11 10 12 17 17 20 23 14 3 6 4 1 2 2 3 1 3 3 3 6 6 5 6 6 7 6 4 4 2 3 2 3 5 4 4 3 1 3 4 1 3 4 7 7 4 4 2 2 1 4 4 4 3 1 1 1 0 1 3 4 3 3 5 6 3 2 3 3 4 6 7 5 7 8 7 6 6 9 8 6 6 7 8
31 25 14 5 5 9 10 13 14 14 19 19 6 5 5 2 3 3 2 3 2 3 4 4 8 7 4 3 3 5 5 4 6 7 5 3 2 5 5 5 4 1 1 1 1 2 2 5 5 1 2 4 2 1 4 3 2 4 2 3 2 2 2 4 3 3 5 5 5 3 2 3 2 3 4 5 3 3 6 7 8 7 7 8 7 7 7 7
30 21 8 4 6 8 10 12 12 13 14 9 5 5 2 2 3 1 1 4 3 3 5 4 5 6 5 4 3 5 5 3 7 8 5 5 4 5 3 3 3 1 2 0 3 2 2 5 6 2 2 1 5 4 1 2 2 4 1 3 1 4 4 3 3 5 4 3 3 2 2 4 3 2 2 6 4 3 3 5 8 7 6 8 8 5 5 6
29 18 5 5 8 9 11 12 12 13 9 5 6 3 1 4 3 1 2 5 2 3 6 5 4 3 4 5 4 6 7 4 6 7 4 5 5 4 3 3 3 2 3 3 3 1 0 5 6 7 5 3 5 5 2 3 2 3 3 3 5 4 4 0 4 3 1 2 4 2 2 2 1 2 3 5 4 4 4 5 9 8 6 7 7 5 5 5
28 17 5 6 9 8 9 12 13 12 6 6 4 1 3 3 2 1 3 3 2 2 4 3 3 2 3 4 4 6 8 5 5 6 4 4 4 4 5 5 4 3 1 2 1 2 1 4 6 6 7 6 7 7 5 1 2 1 2 5 4 1 3 3 2 4 3 3 5 2 4 4 1 1 2 1 4 5 5 5 7 7 6 7 6 5 5 5
21 13 6 6 9 7 10 13 13 9 5 5 1 3 2 2 3 4 3 1 2 2 4 2 2 2 2 3 3 5 5 3 4 5 3 3 3 3 6 4 5 9 6 3 1 2 1 4 7 3 3 6 8 9 7 5 3 2 2 4 1 1 3 1 1 2 3 4 5 4 4 5 4 5 6 7 8 8 7 6 7 7 7 7 6 6 5 5
13 7 2 5 8 8 13 14 9 5 5 3 1 2 2 3 4 6 6 3 1 2 2 2 2 1 2 2 3 4 4 1 2 3 1 1 3 4 5 3 5 10 10 5 3 2 3 2 6 4 3 5 5 4 3 6 7 5 2 3 2 2 3 2 2 2 3 4 4 4 4 4 5 6 11 12 11 10 9 7 6 7 7 7 6 6 6 5
8 4 1 5 11 12 14 10 4 5 3 1 2 2 3 3 5 6 7 5 1 1 1 3 2 1 3 3 3 3 2 1 1 1 2 2 4 5 5 5 5 7 7 6 5 2 3 1 5 6 5 4 4 2 2 3 5 5 5 5 4 2 1 2 2 2 3 3 3 3 4 5 5 5 10 14 12 11 10 9 8 7 6 6 6 6 6 6
5 3 3 7 13 13 11 5 3 3 1 1 1 2 3 3 5 8 8 5 2 2 2 3 2 2 3 3 3 3 1 1 1 1 3 2 2 2 5 8 7 6 5 5 4 1 1 0 4 5 4 3 4 5 4 5 5 3 3 3 3 3 1 2 4 2 1 3 4 4 5 6 6 3 1 4 4 3 3 2 4 4 6 6 6 7 6 5
3 1 5 10 16 13 8 4 1 1 1 2 3 4 5 4 4 7 8 6 4 2 0 1 0 1 2 2 2 2 1 2 3 1 3 3 2 3 5 8 8 6 4 2 3 2 2 1 3 5 5 4 6 7 6 7 9 6 3 1 1 0 2 1 4 4 4 3 1 1 3 5 5 5 7 8 9 11 12 11 7 4 1 2 2 2 3 4
2 3 8 14 19 12 5 3 4 3 1 4 4 6 7 4 3 5 6 7 5 3 3 1 0 1 2 2 2 2 3 2 4 3 3 3 3 4 5 11 11 8 4 2 3 3 1 1 2 5 5 3 5 6 5 5 5 4 3 1 2 1 2 3 4 2 3 5 3 1 4 5 5 4 8 9 10 10 9 9 9 9 6 3 4 3 1 5
2 4 6 13 19 11 5 2 4 4 4 6 7 7 6 3 4 6 5 6 5 4 4 3 2 1 2 1 1 2 2 1 3 4 3 2 4 5 9 16 14 8 4 2 1 2 3 2 2 5 6 7 6 5 5 5 3 2 4 1 2 1 2 0 1 2 1 4 2 3 5 5 4 2 6 8 8 8 5 4 6 9 8 5 2 2 0 6
3 2 4 10 16 11 5 2 3 2 5 7 6 7 7 4 3 4 5 5 3 3 4 4 4 4 3 4 3 2 1 0 3 5 4 4 5 7 13 18 13 9 9 7 3 2 2 3 2 3 5 8 8 6 4 3 2 3 4 4 2 2 2 1 2 2 2 4 2 2 4 6 7 3 5 8 8 5 2 3 5 8 9 7 4 2 2 7
2 2 3 6 9 7 3 2 4 3 4 6 5 6 6 5 5 4 4 4 4 4 3 4 5 6 6 7 6 4 5 4 3 3 3 4 4 5 11 15 11 11 16 15 8 1 1 1 3 6 7 9 9 8 5 2 3 6 7 10 9 4 2 3 1 2 4 3 5 4 4 5 7 4 4 5 7 5 4 6 6 5 7 8 6 3 2 7
1 1 2 3 4 4 3 4 5 4 3 4 3 5 5 6 7 5 3 2 5 7 3 3 8 8 5 6 4 3 5 6 4 4 4 4 4 6 9 9 8 12 16 15 11 5 1 3 4 6 8 10 9 9 7 4 6 9 10 12 13 8 3 4 4 6 5 2 6 6 4 5 7 2 1 1 2 2 5 7 7 7 7 7 5 2 5 8
1 0 1 1 2 2 2 4 5 5 5 4 1 3 4 6 6 5 4 4 5 7 4 4 10 9 5 4 2 2 4 5 4 5 5 5 6 8 9 7 6 10 13 10 8 5 0 4 5 4 6 9 8 9 9 6 6 9 10 11 11 9 7 6 7 8 6 5 7 7 4 7 11 7 4 2 3 7 7 7 6 6 6 6 6 6 7 8
2 1 2 2 0 1 2 4 5 5 6 5 2 2 3 6 6 5 5 4 4 6 5 3 6 8 7 6 3 0 2 2 2 4 4 5 5 5 6 6 5 7 10 9 7 4 2 4 3 3 5 7 6 8 9 7 7 9 11 12 11 8 6 7 7 8 7 7 8 8 7 9 11 10 5 8 7 10 8 4 5 8 8 7 8 8 9 9
2 1 2 3 2 2 3 4 4 3 5 4 2 3 4 6 8 8 7 4 3 4 5 3 3 5 4 6 5 0 2 1 4 5 2 3 5 3 2 3 4 7 9 7 6 4 3 4 5 4 5 6 6 6 7 8 8 11 14 16 12 7 5 7 7 6 5 6 8 8 10 10 8 7 5 6 9 7 6 7 8 10 11 8 6 7 9 9
3 1 1 1 2 3 2 2 3 2 3 3 2 3 5 5 8 8 7 2 4 1 2 3 4 4 2 4 5 3 5 3 5 7 4 3 3 2 2 3 4 7 7 4 4 4 3 4 5 4 4 8 6 3 7 10 11 15 20 19 13 8 7 7 6 5 6 7 8 7 8 8 6 5 5 6 8 8 8 10 9 9 8 6 7 7 8 8
7 3 2 2 1 2 2 2 3 1 1 3 4 4 4 4 7 6 3 3 2 1 1 2 3 2 3 5 7 7 8 6 7 7 6 5 6 5 6 7 7 7 6 4 4 3 3 4 3 1 4 9 6 2 5 8 9 12 14 11 9 10 9 8 6 6 7 7 6 6 6 6 5 4 5 7 6 8 11 11 10 9 8 9 10 10 9 8
Wind_Direction
10 8 5 3 1 359 357 355 354 351 351 349 348 347 347 348 349 348 346 343 341 340 340 337 337 338 334 332 318 306 307 301 298 289 262 264 269 247 238 243 246 258 251 240 241 254 275 277 276 285 306 315 235 230 223 202 183 156 179 219 248 260 269 235 225 234 217 284 300 314 24 63 359 226 227 45 64 98 85 45 24 18 18 63 117 149 159 159
7 5 3 1 359 357 355 353 351 349 349 347 347 345 344 346 345 345 344 341 340 338 340 338 338 339 337 334 319 314 310 302 299 279 264 259 245 224 222 225 234 252 242 227 229 230 230 251 266 286 298 276 250 253 253 225 176 185 186 198 229 221 232 236 252 265 223 245 299 298 349 14 279 217 168 86 164 125 88 27 19 45 34 59 104 132 145 151
5 4 2 360 358 355 353 351 349 348 347 346 345 344 342 342 342 343 342 339 338 337 338 336 338 341 339 333 325 323 312 311 302 272 273 221 209 205 201 208 223 232 220 219 232 230 226 238 265 321 315 271 256 256 274 280 256 216 180 205 242 221 242 259 261 265 230 204 315 303 319 316 277 224 174 164 158 153 145 162 128 132 156 124 124 133 144 150
4 2 0 358 356 354 351 349 348 346 346 345 344 342 340 339 340 340 340 338 336 336 336 334 337 341 341 334 331 327 320 337 295 277 296 188 204 199 198 209 217 215 212 224 239 241 248 258 282 329 282 285 259 235 243 241 240 240 172 203 237 204 246 260 235 255 279 158 135 283 310 312 291 273 227 171 148 203 201 190 179 176 174 158 154 148 154 156
3 1 359 357 355 353 351 349 347 346 344 344 342 340 338 337 338 338 339 337 334 334 333 332 333 340 344 334 330 324 337 23 287 296 295 196 203 199 202 209 210 212 215 228 241 249 263 271 287 206 218 258 247 221 239 228 195 240 233 225 242 198 239 266 236 243 281 257 237 305 304 277 288 309 251 192 188 231 211 205 183 163 168 167 164 162 163 162
2 359 358 355 354 352 350 348 346 345 343 342 341 339 337 335 335 337 337 336 333 332 331 328 329 341 344 334 330 300 339 349 270 283 250 201 191 194 197 201 205 211 217 228 241 259 282 291 315 234 241 260 259 242 251 242 190 216 261 252 254 240 242 273 275 250 266 288 290 279 243 234 287 301 263 211 227 235 200 187 167 165 173 166 160 162 168 169
360 358 356 354 353 351 349 347 345 343 342 340 339 337 335 333 333 334 335 336 332 329 327 324 325 337 345 356 348 339 102 252 271 273 240 207 183 193 192 197 204 207 210 221 228 229 303 324 274 257 264 272 265 246 268 292 190 195 269 279 267 259 256 270 274 278 293 288 257 244 277 271 255 264 266 246 248 227 184 165 160 170 164 156 158 167 175 176
358 356 354 352 351 350 349 346 343 342 340 339 337 335 334 331 331 331 333 334 329 327 323 319 318 330 344 162 171 357 292 254 275 282 224 202 183 190 191 195 202 204 202 213 213 175 21 293 261 244 262 269 260 259 298 347 13 179 279 275 285 286 281 284 277 276 277 255 248 268 290 261 241 235 243 253 253 189 165 156 154 156 152 162 171 175 180 180
355 354 352 350 349 348 348 346 343 341 338 337 335 333 332 330 330 330 331 330 327 324 318 313 308 320 322 174 80 349 268 258 285 284 210 193 186 186 190 194 199 201 202 216 215 184 150 235 235 207 262 283 312 315 317 24 341 289 283 282 300 291 276 279 279 271 265 247 238 264 270 264 257 249 262 258 241 169 155 149 150 154 164 177 179 181 184 183
353 352 351 349 348 346 346 345 342 340 337 335 332 331 329 328 329 329 328 326 324 319 314 307 295 310 195 188 92 300 270 280 295 269 198 188 186 185 192 198 199 200 205 217 212 196 200 216 227 240 311 293 312 315 328 75 284 281 297 307 305 295 282 279 286 285 286 277 239 234 259 268 263 181 260 267 207 153 149 151 162 166 173 183 183 186 186 187
352 351 350 348 347 345 345 344 341 339 336 333 330 328 327 328 329 327 324 321 319 315 308 294 285 274 197 172 130 223 270 296 282 221 187 189 187 190 197 201 201 203 208 215 220 219 223 232 265 339 293 281 313 313 305 250 287 298 318 319 309 312 310 301 296 288 291 286 257 222 251 269 267 210 235 251 176 151 153 160 175 176 180 185 184 186 186 196
352 351 349 348 346 344 343 343 341 339 335 332 329 328 327 328 330 324 318 316 314 312 298 279 278 224 199 143 207 241 261 305 258 194 187 193 194 204 206 204 206 208 209 209 230 231 232 247 301 307 267 286 318 308 295 292 312 315 332 324 308 323 313 295 291 279 262 261 256 196 270 275 260 236 235 232 159 152 158 168 184 186 184 184 181 184 191 200
352 350 349 347 345 344 342 342 341 338 334 331 330 330 329 328 328 319 312 313 310 304 287 268 252 199 167 205 239 258 263 258 245 199 195 200 202 214 211 206 212 217 217 219 233 237 243 260 269 267 269 290 285 276 303 321 341 321 325 320 308 331 302 283 275 260 249 245 234 149 238 267 253 248 250 232 142 150 165 180 190 189 183 183 182 185 195 199
352 350 348 346 345 343 342 342 341 338 334 330 331 332 330 330 327 315 311 315 308 284 263 216 178 168 149 255 264 283 286 263 243 217 207 203 205 216 213 210 215 221 225 231 243 251 261 270 268 268 267 229 252 298 329 339 352 323 318 315 311 331 288 286 286 248 250 243 201 155 216 253 253 257 259 236 150 158 176 189 190 187 186 184 185 188 195 201
352 350 348 346 345 343 342 342 341 338 333 331 333 333 333 333 330 327 332 333 307 224 222 133 159 164 77 279 274 296 298 249 228 224 215 204 202 209 212 210 216 222 225 234 246 258 268 278 283 268 271 287 353 337 336 335 333 336 311 308 300 255 279 294 301 266 256 258 159 156 218 254 252 261 262 229 168 172 179 188 188 187 191 186 186 192 195 203
351 349 348 346 345 344 343 343 343 339 333 333 336 335 336 335 338 357 17 38 64 217 172 117 174 179 344 285 287 305 273 218 225 224 215 208 204 200 201 202 217 227 228 235 243 255 266 276 279 224 264 316 2 351 344 334 324 342 221 274 277 260 285 303 310 302 292 23 141 179 215 266 252 258 261 228 183 191 183 181 187 191 193 187 186 190 192 200
351 349 348 346 345 344 344 344 344 340 335 338 341 337 339 342 356 66 79 60 37 296 163 107 171 172 250 276 299 303 252 233 238 208 206 211 208 204 197 188 217 230 231 242 248 258 267 264 270 274 304 327 21 60 8 308 292 307 242 255 269 264 275 291 304 313 345 42 186 212 216 253 261 265 270 255 201 205 195 177 185 194 193 187 185 186 190 195
351 349 348 346 345 345 345 345 345 343 339 344 346 338 347 11 53 102 84 41 15 345 315 284 56 104 265 279 278 286 287 281 268 198 198 206 208 208 196 176 197 220 234 264 264 266 271 278 318 311 310 330 36 118 175 252 240 258 267 261 281 279 267 273 282 289 322 355 285 224 220 247 260 268 279 272 211 199 209 191 183 192 190 183 183 186 191 196
351 350 348 346 345 344 346 347 347 349 345 351 356 350 15 33 60 116 55 7 5 214 303 230 169 127 275 273 258 283 316 308 280 207 193 194 204 212 200 181 177 177 182 231 272 256 207 303 346 292 273 248 230 185 204 242 244 257 272 270 281 287 278 277 275 266 282 323 281 235 225 243 255 262 274 276 232 194 218 213 179 186 188 180 183 189 189 197
352 351 348 346 345 344 347 348 350 357 356 2 10 12 31 22 10 27 336 333 269 228 261 238 211 237 271 280 282 301 320 319 293 208 201 192 192 204 202 179 144 159 188 182 239 257 169 204 239 237 245 234 231 221 221 245 255 263 277 277 273 278 281 280 277 278 299 359 267 248 241 254 258 257 255 260 254 228 237 224 172 177 187 183 187 191 189 199
353 352 349 346 345 345 347 349 357 6 10 22 23 26 51 9 344 321 328 303 255 238 246 246 233 242 255 268 288 314 331 321 316 284 231 201 174 172 203 186 173 233 227 184 219 282 163 214 229 229 241 239 237 236 235 248 255 258 264 269 274 272 272 273 272 284 316 51 280 279 286 281 274 270 266 266 267 254 245 224 175 177 188 190 189 188 189 202
353 353 350 346 345 345 347 352 5 12 25 39 33 38 34 5 352 330 337 298 281 248 234 248 244 250 255 260 270 279 302 280 294 303 235 185 158 166 204 178 185 236 234 159 204 279 246 245 239 233 240 245 247 246 242 250 254 257 259 262 272 265 267 277 279 287 318 63 287 289 292 281 276 282 288 290 274 253 248 232 186 176 186 190 188 186 188 198
352 353 351 347 345 345 347 356 11 17 31 40 32 28 4 359 359 348 344 280 291 275 237 238 232 249 256 260 256 235 222 226 249 280 219 167 160 179 170 171 196 222 219 174 192 215 239 252 243 235 238 243 254 255 244 250 258 255 255 254 260 260 261 277 284 294 316 258 267 291 301 283 293 306 298 289 270 261 275 268 211 175 183 186 185 186 186 189
351 353 352 348 345 345 349 358 12 13 19 37 30 13 356 350 352 349 343 230 292 288 245 215 204 226 236 258 223 183 201 209 199 254 211 167 150 163 160 178 191 214 230 208 200 209 235 250 248 241 238 231 243 256 251 249 262 256 252 248 251 254 244 237 265 305 341 321 278 343 355 308 311 326 304 302 313 334 336 336 356 148 184 187 185 186 184 184
351 352 351 349 346 345 350 4 8 2 1 40 16 355 349 344 342 345 349 7 304 281 257 209 191 221 233 236 164 165 177 213 206 224 192 170 160 152 183 190 170 215 233 221 214 224 246 252 256 257 254 242 236 251 252 238 253 266 256 246 239 234 233 245 274 335 5 322 293 42 19 301 301 316 301 326 9 12 6 7 6 10 149 174 181 185 187 188
351 352 349 349 346 345 354 16 352 353 352 18 354 342 342 340 339 345 13 32 329 283 292 210 174 222 246 195 170 142 83 258 236 209 183 178 174 157 169 221 194 224 218 211 219 234 251 251 250 249 255 257 247 253 248 222 229 262 254 245 238 231 245 270 293 328 312 274 278 315 187 269 305 326 320 5 40 20 6 9 357 353 19 136 174 175 182 192
351 353 348 347 347 349 0 341 339 352 5 328 336 338 338 337 340 347 49 39 355 301 298 299 138 210 242 193 157 92 97 270 276 219 179 178 179 154 177 211 228 228 210 173 255 253 255 271 279 265 262 264 255 257 251 218 208 249 264 292 298 304 301 290 298 290 236 257 308 325 182 234 296 296 307 13 52 28 6 1 352 345 350 5 163 178 182 186
350 354 349 344 348 352 354 339 337 349 340 323 331 337 334 333 338 17 85 60 302 293 293 287 329 281 283 201 125 129 208 248 328 296 188 174 179 141 193 212 186 215 222 156 235 266 261 270 279 276 280 275 254 250 256 259 243 241 253 290 312 290 271 269 289 270 258 335 316 310 341 318 278 276 314 10 60 39 9 355 350 343 337 353 46 166 180 178
349 353 350 344 347 353 350 343 331 328 334 333 338 338 330 329 351 68 78 85 272 297 265 296 343 305 331 12 332 283 265 248 209 275 196 167 180 138 189 217 194 221 238 176 213 261 244 245 256 258 266 260 257 258 253 254 260 255 261 277 301 281 263 269 255 251 334 14 267 277 334 60 273 287 328 13 68 73 28 3 344 341 342 353 32 80 125 150
349 352 350 344 344 349 347 342 340 340 340 342 341 335 328 332 67 57 48 223 277 312 308 14 358 327 355 9 319 297 288 295 269 300 9 123 174 117 185 229 190 220 258 227 235 250 248 265 264 240 237 234 249 264 256 246 257 272 302 351 352 344 355 6 10 93 23 300 254 259 192 114 282 290 282 297 143 164 155 75 21 1 7 4 16 57 83 103
348 350 349 343 338 342 341 341 353 349 342 343 340 335 337 20 65 82 107 247 273 322 344 10 353 340 353 351 310 308 305 309 341 23 287 287 118 305 303 342 358 349 330 307 276 274 283 296 278 244 240 242 254 270 279 276 265 260 315 51 358 330 357 10 357 31 319 264 255 248 161 116 211 266 248 236 203 169 189 133 102 66 36 20 12 35 60 77
347 348 347 339 331 336 333 335 349 350 344 342 339 342 69 40 19 123 241 293 312 332 339 340 333 336 339 340 334 333 329 310 302 205 221 235 230 245 218 199 199 264 315 278 280 318 307 273 277 278 260 247 242 270 302 322 355 47 48 46 26 331 349 353 317 317 245 254 251 223 148 126 235 244 223 214 192 150 156 158 123 101 80 56 27 30 49 59
346 345 343 334 323 331 339 344 349 350 342 338 339 31 79 62 328 225 274 318 304 318 326 317 326 333 346 353 344 340 335 312 340 326 262 259 253 262 263 240 213 188 259 238 266 330 309 293 301 305 293 289 138 186 298 310 337 345 312 104 82 17 336 290 275 285 270 267 269 259 273 277 281 271 220 199 188 158 145 141 135 112 96 84 54 39 51 58
347 345 342 336 325 335 352 357 356 350 336 336 0 63 53 81 243 260 305 304 277 334 351 327 327 339 15 6 327 2 2 320 4 2 316 334 297 274 302 289 260 210 208 213 239 219 228 294 293 258 305 326 6 226 213 210 271 278 218 146 155 171 216 253 234 236 260 268 284 304 271 219 231 266 209 158 150 160 141 133 128 115 104 97 71 44 46 56
348 350 354 8 358 1 11 5 360 352 339 347 56 66 63 201 261 290 317 309 315 352 334 322 341 351 356 329 304 33 34 324 355 7 348 6 341 282 295 288 272 107 106 135 266 217 175 249 258 255 237 345 360 317 239 58 329 269 335 56 258 194 185 244 217 204 239 275 284 285 234 209 215 266 102 110 123 139 133 125 115 107 103 100 89 70 57 53
349 0 28 25 10 17 14 2 356 351 350 37 67 55 179 209 235 187 292 318 344 348 335 347 21 18 340 326 323 7 12 330 346 2 348 353 342 312 325 313 319 58 128 177 250 287 346 261 286 315 307 16 15 328 332 23 288 282 359 311 251 183 135 8 287 279 12 295 272 242 247 283 13 6 37 86 128 149 152 136 118 119 119 105 106 114 102 80
349 357 3 7 14 19 5 353 351 350 9 75 89 220 225 232 256 289 296 323 348 17 37 18 342 349 342 333 323 346 350 331 350 6 338 330 326 338 358 336 334 12 94 143 245 271 286 275 283 300 295 317 353 347 345 332 192 42 333 264 259 44 70 74 331 325 351 288 280 257 227 234 137 243 265 169 182 184 179 150 123 127 128 118 124 131 118 106
345 348 338 357 12 7 348 341 341 352 41 76 76 240 232 243 290 316 307 321 339 22 74 100 282 340 7 329 299 327 348 338 350 358 335 324 296 330 5 339 344 2 360 51 57 290 343 302 287 297 298 310 350 2 342 329 3 75 221 263 323 325 301 44 108 289 283 267 282 284 243 221 202 205 197 198 204 192 184 169 143 139 135 128 129 125 112 102
350 353 349 13 12 354 341 333 333 19 64 64 281 247 271 260 272 302 301 302 5 64 81 185 225 346 340 292 273 309 344 330 331 346 337 323 303 335 16 354 347 356 349 25 63 310 358 341 282 311 346 321 349 7 309 313 337 348 342 347 17 186 219 219 176 171 205 240 261 278 277 245 232 206 188 196 200 184 179 173 156 152 148 138 129 122 111 104
8 13 249 343 355 342 336 336 358 55 69 147 202 235 306 290 278 299 298 292 287 123 226 227 213 280 281 278 271 282 318 208 224 273 235 285 310 320 3 8 351 342 342 26 58 335 2 21 270 298 343 339 326 303 265 303 324 336 340 333 325 307 237 249 260 155 162 217 234 256 276 261 253 219 192 195 192 182 176 165 162 167 156 141 135 135 131 133
15 29 268 334 352 340 345 9 41 63 88 257 245 264 297 293 298 316 314 299 271 228 213 200 208 243 242 272 289 267 286 275 252 223 232 276 311 298 357 7 347 331 348 23 34 352 24 96 257 289 327 310 252 254 288 303 293 277 267 279 291 294 304 295 288 280 211 210 202 218 258 263 278 306 200 173 145 98 31 89 157 162 157 155 153 150 147 147
36 16 294 352 359 346 8 49 323 32 107 276 279 278 297 299 299 322 332 333 331 322 10 148 187 295 249 262 292 286 343 293 267 257 240 261 260 254 332 354 341 337 355 347 316 253 173 145 261 272 275 248 249 263 270 277 279 270 255 223 155 328 64 114 261 285 301 274 211 171 253 262 295 7 48 58 63 47 15 354 342 334 290 147 98 120 126 95
61 290 298 358 2 351 37 57 330 5 352 293 306 305 305 304 319 344 347 345 345 344 351 2 43 334 283 320 342 330 356 306 252 262 266 279 280 262 333 360 347 339 344 328 321 303 269 9 302 289 292 295 298 293 284 289 289 277 290 24 92 73 101 171 231 277 292 275 280 290 256 261 295 24 65 65 65 61 29 351 330 313 305 357 25 335 340 72
329 271 281 354 1 6 68 62 340 354 328 329 345 331 315 318 7 9 347 331 337 348 348 337 351 351 267 342 19 283 308 307 273 298 300 298 294 299 3 8 354 346 341 287 259 302 292 276 303 315 313 313 330 341 333 338 352 293 287 279 121 35 7 239 309 30 313 272 257 230 246 260 284 5 75 78 72 75 65 352 310 291 291 309 329 281 118 88
320 267 257 332 356 18 66 72 31 8 338 347 343 325 328 333 355 8 336 314 329 18 359 318 328 354 341 359 3 305 299 40 293 318 335 340 331 339 1 360 353 359 344 308 242 181 240 228 226 267 280 284 296 300 285 288 305 294 286 272 265 353 2 4 25 41 278 299 324 240 255 287 305 344 85 101 92 87 136 204 249 268 280 286 281 273 106 106
351 11 302 323 358 26 58 58 52 38 349 356 337 316 333 327 315 343 353 321 332 8 355 316 351 10 7 16 10 336 352 353 321 347 358 343 342 343 346 344 346 3 356 344 347 18 220 252 216 207 227 249 259 261 244 217 270 276 278 286 290 287 149 130 115 224 215 278 306 256 223 280 308 352 67 105 118 138 204 213 217 245 267 272 279 288 120 118
74 31 2 341 339 2 24 20 30 25 342 349 330 295 315 327 316 327 352 333 343 359 0 28 33 26 2 10 4 317 345 348 339 2 349 327 328 319 328 338 347 4 7 357 347 354 20 312 278 230 242 255 259 267 269 259 266 268 270 278 282 278 235 185 225 230 192 214 281 255 214 275 282 242 157 350 78 164 219 218 207 219 237 242 239 195 135 123
47 104 35 26 293 320 14 342 340 348 334 334 315 273 300 322 312 313 328 324 356 15 13 20 25 19 359 2 350 294 340 348 348 356 342 336 343 333 335 336 334 2 13 358 341 360 17 264 265 244 268 280 286 290 288 281 270 272 274 270 271 274 254 226 237 235 195 195 250 244 219 262 275 261 207 183 311 285 253 223 215 229 232 208 181 162 142 131
39 42 340 7 354 236 260 291 309 336 337 333 323 294 308 321 319 317 318 317 352 23 41 43 4 358 2 9 13 346 357 355 321 325 336 344 344 337 331 320 317 2 7 348 336 342 277 264 274 270 280 290 295 295 298 304 292 285 283 272 267 261 228 219 243 245 219 217 245 255 250 249 261 270 229 167 201 253 264 278 298 283 259 220 182 161 146 140
50 49 324 354 347 285 258 287 326 344 334 334 324 314 335 353 352 337 321 341 20 6 32 52 332 326 353 9 16 114 188 234 264 270 309 347 333 330 310 298 317 343 343 333 325 328 315 295 309 329 316 294 293 303 309 317 316 304 291 280 276 276 244 232 239 236 228 237 242 251 267 267 251 250 242 190 191 222 279 299 290 269 251 224 177 152 145 144
9 309 345 51 320 311 293 303 343 351 326 348 9 333 344 8 2 336 313 8 100 101 11 354 309 304 339 356 349 261 237 248 255 249 233 245 266 247 243 275 310 318 316 305 301 320 333 296 304 349 322 280 279 323 329 335 337 311 291 282 278 274 260 247 236 218 224 247 253 246 257 270 259 236 250 239 205 201 231 247 239 221 204 162 138 140 145 147
19 350 14 69 238 327 7 322 332 358 304 348 357 343 345 348 349 351 334 342 35 109 199 252 272 322 341 334 329 290 260 250 242 235 220 226 239 232 237 256 267 273 279 279 273 262 243 263 278 293 281 277 277 338 358 351 330 295 281 273 257 245 244 246 253 250 236 231 242 246 242 253 265 270 277 273 254 226 221 218 211 199 170 142 144 152 153 154